CZ-2C DEB

Satellite information

Favourite Embed

Satellite Type and Status

DEBRISIN ORBIT

Key statistics

Satellite CZ-2C DEB at a glance.

Uptime

5875

Days in orbit

Revolutions

≈ 14.5

Per day

Orbit

SSO

Sun Synchronous Orbit

Inclination

98.1

Latest

Satellite identification and parameters

Extended collection of information and parameters for CZ-2C DEB.

Object identification

Identified? True

Debris? True

Object name: CZ-2C DEB

International designator: 2009-061F

Object number (NORAD): 36093

Object ID (CCSDS): 36093

Country: PEOPLES REPUBLIC OF CHINA (PRC)

Current information (Y/N): Y

RCS size: SMALL

Orbital parameters

Period: 99.636 minutes

Inclination: 98.1497 deg

SMA: 7119.289 km

Apoapsis: 823.329 km

Periapsis: 658.98 km

RAAN: 74.0198 deg

Eccentricy: 0.01154251

Argument of periapsis: 310.9945 deg

Mean anomaly: 48.1308 deg

Mean motion: 14.45266088 rev/day

Mean motion (dot): 0.00005837 rev/day2

B* drag term: 0.0015439451 1/REarth

Two-line elements (TLE)

Creation date: Dec. 12, 2025, 10:14 a.m.

Reference frame: TEME

Reference center: EARTH

Epoch: Dec. 12, 2025, 4:44 a.m. UTC

TLE line 0: 0 CZ-2C DEB

TLE line 1: 1 36093U 09061F 25346.19788848 .00005837 00000-0 15439-2 0 9997

TLE line 2: 2 36093 98.1497 74.0198 0115425 310.9945 48.1308 14.45266088839232

Live tracking on map

Real-time ground track for satellite CZ-2C DEB.

In-orbit conjunctions

A list of the most updated potential collisions computed for object CZ-2C DEB.

Target Orbit TCA Probability of collision Miss distance Type
SL-24 DEB SSO 2025-02-23 11:21:50 0.0002031184 105.0 (m) DEBRIS
CZ-6A DEB SSO 2024-11-10 23:18:22 0.0002738269 820.0 (m) DEBRIS
COSMOS 2219 LEO 2024-08-30 22:22:43 0.0001164132 170.0 (m) PAYLOAD

Associated space launch

Chinese experimental satellite of unknown purpose

CZ-2C DEB was lifted into orbit during the mission ‘Long March 2C | Shi Jian 11-01’, on board a Long March 2 space rocket.

The launch took place on Nov. 12, 2009, 2:45 a.m. from Launch Area 94 (SLS-2 / 603).

For more information about the launch, click the button.

Launch to space Long March 2C | Shi Jian 11-01
Long March 2C | Shi Jian 11-01

Agency: N/A

Status: Launch Successful

Launch date: Nov. 12, 2009, 2:45 a.m. UTC

Rocket: Long March 2

Launch pad: Launch Area 94 (SLS-2 / 603)

Location: Jiuquan Satellite Launch Center, People's Republic of China

...

Latest news about this satellite

There are no fresh news available about this satellite. Check back as we update our databases every day.


Newsletter sign-up

Weekly statistics, charts and insights to help you stay on top of the space industry.